TimeMDT,TemperatureF,Dew PointF,Humidity,Sea Level PressureIn,VisibilityMPH,Wind Direction,Wind SpeedMPH,Gust SpeedMPH,PrecipitationIn,Events,Conditions,WindDirDegrees,DateUTC
12:53 AM,79.0,57.0,47,29.90,10.0,South,13.8,20.7,N/A,,Clear,180,2013-08-25 06:53:00
1:53 AM,77.0,57.0,50,29.90,10.0,South,15.0,21.9,N/A,,Clear,190,2013-08-25 07:53:00
2:53 AM,73.9,57.9,57,29.91,10.0,SSW,11.5,-,N/A,,Clear,200,2013-08-25 08:53:00
3:53 AM,71.1,57.9,63,29.92,10.0,South,9.2,-,N/A,,Clear,190,2013-08-25 09:53:00
4:53 AM,70.0,57.9,65,29.92,10.0,South,9.2,-,N/A,,Clear,180,2013-08-25 10:53:00
5:53 AM,69.1,57.0,65,29.95,10.0,South,8.1,-,N/A,,Clear,190,2013-08-25 11:53:00
6:53 AM,69.1,57.0,65,29.96,10.0,South,9.2,-,N/A,,Clear,190,2013-08-25 12:53:00
7:53 AM,75.0,57.0,53,29.97,10.0,SSW,12.7,-,N/A,,Clear,200,2013-08-25 13:53:00
8:53 AM,82.0,57.0,42,29.96,10.0,SSW,12.7,20.7,N/A,,Clear,210,2013-08-25 14:53:00
9:53 AM,86.0,57.0,37,29.97,10.0,SW,16.1,20.7,N/A,,Clear,220,2013-08-25 15:53:00
10:53 AM,90.0,57.9,34,29.96,10.0,South,9.2,-,N/A,,Clear,180,2013-08-25 16:53:00
11:53 AM,93.9,55.0,27,29.94,10.0,SSW,12.7,21.9,N/A,,Clear,200,2013-08-25 17:53:00
12:53 PM,97.0,53.1,23,29.91,10.0,South,18.4,24.2,N/A,,Clear,180,2013-08-25 18:53:00
1:53 PM,99.0,52.0,21,29.90,10.0,South,19.6,26.5,N/A,,Clear,180,2013-08-25 19:53:00
2:53 PM,100.9,51.1,19,29.88,10.0,South,16.1,25.3,N/A,,Clear,190,2013-08-25 20:53:00
3:53 PM,98.1,52.0,21,29.87,10.0,South,17.3,26.5,N/A,,Partly Cloudy,180,2013-08-25 21:53:00
4:53 PM,97.0,52.0,22,29.87,10.0,South,17.3,25.3,N/A,,Partly Cloudy,180,2013-08-25 22:53:00
5:53 PM,93.9,53.1,25,29.88,10.0,South,15.0,21.9,N/A,,Clear,180,2013-08-25 23:53:00
6:53 PM,91.9,54.0,27,29.89,10.0,South,12.7,-,N/A,,Partly Cloudy,170,2013-08-26 00:53:00
7:53 PM,88.0,53.1,30,29.91,10.0,South,13.8,-,N/A,,Clear,170,2013-08-26 01:53:00
8:53 PM,84.9,53.1,33,29.92,10.0,South,15.0,-,N/A,,Clear,170,2013-08-26 02:53:00
9:53 PM,82.9,55.0,38,29.94,10.0,South,12.7,20.7,N/A,,Clear,180,2013-08-26 03:53:00
10:53 PM,81.0,55.0,41,29.94,10.0,South,13.8,23.0,N/A,,Clear,180,2013-08-26 04:53:00
11:53 PM,79.0,55.9,45,29.94,10.0,South,15.0,20.7,N/A,,Clear,180,2013-08-26 05:53:00